Regional Weather Roundup
Issued by NWS

Home | Current Version | Previous Version | Graphics & Text | Print | Product List | Glossary Off
Versions: 1 2 3 4 5 6 7 8 9 10 11 12 13 14 15 16 17 18 19 20 21 22 23 24 25 26 27 28 29 30 31 32 33 34 35 36 37 38 39 40 41 42 43 44 45 46 47 48 49 50

000
ASUS43 KMPX 170410
RWRMN
WEATHER ROUNDUP FOR MINNESOTA
NATIONAL WEATHER SERVICE TWIN CITIES/CHANHASSEN MN
1100 PM CDT MON OCT 16 2017


NOTE: "FAIR" INDICATES FEW OR NO CLOUDS BELOW 12,000 FEET WITH NO
SIGNIFICANT WEATHER AND/OR OBSTRUCTIONS TO VISIBILITY. N/A MEANS
CURRENT SKY AND/OR WEATHER CONDITIONS ARE NOT AVAILABLE.

MNZ060>063-068>070-170500-
   Twin Cities Metro

CITY           SKY/WX    TMP DP  RH WIND       PRES   REMARKS
TWIN CITIES    CLEAR     58  39  49 SW6       29.97R
ST PAUL        CLEAR     50  43  77 E3        29.98R
CRYSTAL        CLEAR     57  36  45 SW9       29.94F
BLAINE         CLEAR     57  37  47 S9        29.95S
LAKEVILLE      CLEAR     46  39  76 CALM      29.97S
EDEN PRAIRIE   CLEAR     55  38  52 SW8       29.96R
SOUTH ST PAUL  CLEAR     55  37  51 CALM      29.97S
LAKE ELMO      FAIR      50  37  62 S6        29.98S
$$
MNZ001>005-007-008-013>017-022>024-027-028-170500-
   Northwest Minnesota

CITY           SKY/WX    TMP DP  RH WIND       PRES   REMARKS
BEMIDJI        CLOUDY    50  36  57 W6        29.88S
HALLOCK        CLOUDY    45  30  57 CALM      29.86R
ROSEAU           N/A     54  39  58 SW7       29.85R
WARROAD        CLEAR     52  39  62 SW7       29.84R
THIEF RVR FALL CLOUDY    52  35  52 W9        29.89R
CROOKSTON      CLOUDY    45  34  65 W6        29.90R
FOSSTON        CLOUDY    43  34  70 CALM      29.90R
DETROIT LAKES  CLOUDY    52  41  66 CALM      29.93R
MOORHEAD       CLOUDY    48  39  71 SW3       29.92S
PARK RAPIDS    CLOUDY    46  39  76 W5        29.91R
MAHNOMEN       FAIR      44  37  75 S7        29.90S
$$
MNZ006-009>011-018-025>026-170500-
   North Central Minnesota

CITY           SKY/WX    TMP DP  RH WIND       PRES   REMARKS
BAUDETTE       CLEAR     52  36  54 W8        29.83R
FLAG ISLAND    CLEAR     55  36  47 W13       29.79R
INTL FALLS     CLOUDY    47  36  65 SW6       29.82R
WASKISH        CLOUDY    50  45  81 SW7       29.86R
BIG FORK       CLOUDY    46  37  71 SW3       29.85S
LONGVILLE      CLOUDY    45  39  81 CALM      29.90R
GRAND RAPIDS   CLOUDY    56  39  53 W5        29.90R
CRANE LAKE     CLOUDY    50  36  57 S5        29.84R
ORR            CLOUDY    50  36  57 SW3       29.82R
COOK           CLOUDY    52  37  58 SW6       29.85S
WALKER         FAIR      53  37  54 W6        29.89R
$$
MNZ012-019>021-037-170500-
   Northeast Minnesota

CITY           SKY/WX    TMP DP  RH WIND       PRES   REMARKS
DULUTH         CLOUDY    50  37  61 SW14      29.88F
ELY            PTCLDY    52  36  54 SW8       29.84S
HIBBING        CLOUDY    40  35  83 CALM      29.87R
EVELETH        CLOUDY    48  32  53 SW3       29.88R
DULUTH HARBOR  PTCLDY    55  39  54 SW12      29.88F
TWO HARBORS    CLOUDY    55  41  58 SW7       29.85S
GRAND MARAIS     N/A     46  44  93 CALM      29.83F
G MARAIS ARPRT PTCLDY    50  34  53 SW7G16    29.84F
$$
MNZ029>031-032-039>041-046>048-054>057-064-170500-
   West Central Minnesota

CITY           SKY/WX    TMP DP  RH WIND       PRES   REMARKS
FERGUS FALLS   CLOUDY    48  39  71 CALM      29.95R
WHEATON        CLEAR     52  39  62 SW6       29.96R
MORRIS         CLEAR     50  41  71 W6        29.94R
ALEXANDRIA     CLEAR     51  41  68 SW8       29.95S
ELBOW LAKE     FAIR      48  40  76 SW5       29.95R
WADENA         CLOUDY    52  39  62 W6        29.92S
GLENWOOD       CLEAR     48  39  71 SW8       29.95S
APPLETON       CLEAR     48  39  71 SW6       29.95S
BENSON         CLEAR     48  39  71 W7        29.96S
ORTONVILLE     CLEAR     54  41  62 CALM      29.95S
MADISON        CLEAR     54  43  66 W6        29.95F
WILLMAR        FAIR      46  39  76 CALM      29.97F
$$
MNZ033>034-036-042>043-049>051-058-059-170500-
   Central Minnesota

CITY           SKY/WX    TMP DP  RH WIND       PRES   REMARKS
ST CLOUD       CLEAR     50  39  66 S3        29.94F
SAUK CENTRE    FAIR      49  39  68 CALM      29.94S
PAYNESVILLE    CLEAR     50  40  68 CALM      29.95F
AITKIN         CLOUDY    54  37  54 SW8       29.89S
PINE RIVER     CLOUDY    52  37  58 CALM      29.94R
BRAINERD       CLOUDY    50  39  66 SW8       29.91S
STAPLES        CLOUDY    52  37  58 SW6       29.92R
LONG PRAIRIE   FAIR      46  37  71 S5        29.94S
LITTLE FALLS   CLEAR     45  34  65 CALM      29.93S
LITCHFIELD     CLEAR     52  41  66 CALM      29.96S
BUFFALO        CLEAR     52  37  58 SW3       29.97S
MAPLE LAKE     CLEAR     52  40  64 S3        29.96S
HUTCHINSON     CLOUDY    49  40  71 CALM      29.98R
$$
MNZ037-044-045-052-053-170500-
   East Central Minnesota

CITY           SKY/WX    TMP DP  RH WIND       PRES   REMARKS
PRINCETON      CLEAR     54  39  58 S3        29.95R
MORA           CLEAR     41  36  81 CALM      29.95R
CAMBRIDGE      CLEAR     50  37  62 S3        29.94F
RUSH CITY      PTCLDY    47  38  70 S3        29.94S
MOOSE LAKE     CLOUDY    45  36  70 SW3       29.89S
HINCKLEY       FAIR      39  37  93 CALM      29.93S
CLOQUET        CLOUDY    52  36  54 SW12      29.89S
MCGREGOR       CLOUDY    52  41  66 SW5       29.90S
$$
MNZ071>073-080-081-089-090-097-098-170500-
   Southwest Minnesota

CITY           SKY/WX    TMP DP  RH WIND       PRES   REMARKS
MONTEVIDEO     CLEAR     54  39  58 W6        29.95F
GRANITE FALLS  CLEAR     47  40  76 SW8       29.98S
CANBY          CLEAR     57  42  56 SW10      29.98S
MARSHALL       CLEAR     52  41  66 W8        29.98S
REDWOOD FALLS  CLEAR     53  38  56 SW8       29.97R
OLIVIA         CLEAR     50  41  71 S5        29.96F
PIPESTONE      CLEAR     48  39  71 W3        30.02R
WORTHINGTON    CLEAR     58  39  49 SW12      30.03R
JACKSON        CLOUDY    55  37  50 SW10      30.02R
TRACY          CLEAR     55  42  60 SW9       29.99S
SLAYTON        CLEAR     52  40  64 SW9       30.01S
$$
MNZ065>067-074>077-082>085-091>093-170500-
   South Central Minnesota

CITY           SKY/WX    TMP DP  RH WIND       PRES   REMARKS
MANKATO        CLEAR     54  39  57 S9        29.98F
NEW ULM          N/A     54  39  58 SW8       29.97S
ST JAMES       CLOUDY    55  39  54 S8        29.99S
FAIRMONT       PTCLDY    55  40  56 SW10      30.01S
GLENCOE        CLEAR     49  40  70 CALM      29.97R
FARIBAULT      CLEAR     54  39  58 S3        29.99F
OWATONNA       CLEAR     55  39  54 S13       30.00F
WASECA         PTCLDY    52  37  58 S9        30.01F
ALBERT LEA     CLEAR     59  41  51 S8        30.03S
$$
MNZ078>079-086>088-094>096-170500-
   Southeast Minnesota

CITY           SKY/WX    TMP DP  RH WIND       PRES   REMARKS
ROCHESTER      CLEAR     55  39  54 S17       30.03F
RED WING       CLEAR     57  34  41 CALM      29.98S
STANTON        CLEAR     55  39  55 SW5       29.97S
DODGE CENTER   CLEAR     55  37  50 S15G22    30.01F
WINONA         CLEAR     55  36  47 SW7       30.03F
AUSTIN         CLEAR     52  37  58 S10       30.04F
PRESTON        CLEAR     54  37  52 SW14      30.05F
$$
ABBREVIATIONS USED IN REMARKS
   TC - TEMPERATURES IN CELSIUS
  WCI - WIND CHILL INDEX
   HX - HEAT INDEX
  VSB - VISIBILITY
$$




USA.gov is the U.S. government's official web portal to all federal, state and local government web resources and services.